Location: Table Mountain
(47.2500°N, 120.5778°W)
Time: 13:45:32
(UTC-07:00)

Envisat - Pass Details

Date: 08 October 2017
Orbit: 764 x 766 km, 98.2° (Epoch: 23 October)

Event Time Altitude Azimuth Distance (km) Brightness Sun altitude
Exits shadow 21:01:51 46° 200° (SSW) 1,025 3.5 -26.7°
Maximum altitude 21:03:12 64° 258° (WSW) 849 3.3 -26.9°
Drops below altitude 10° 21:08:15 10° 340° (NNW) 2,310 6.0 -27.7°
Sets 21:10:36 0° 344° (NNW) 3,240 6.8 -28.0°
